Location: *
(43.9900°N, 3.4811°E)
Time: 04:58:55
(UTC+00:00)

Cosmos 1709 Rocket - Pass Details

Date: 25 August 2019
Orbit: 948 x 1002 km, 82.9° (Epoch: 22 September)

Event Time Altitude Azimuth Distance (km) Brightness Sun altitude
Rises 20:10:08 0° 354° (N) 3,634 7.6 -16.4°
Reaches altitude 10° 20:12:39 10° 357° (N) 2,688 6.8 -16.8°
Maximum altitude 20:18:46 66° 80° (E) 1,043 3.9 -17.7°
Enters shadow 20:22:32 24° 156° (SSE) 1,860 5.0 -18.2°
